Middleton, WI

5:39 AM CDT on April 23, 2018 (GMT -0500)
Middleton

Weather History for KC29 - June, 2013

Change the Weather History Date:

Thursday, June 13, 2013

  Actual Average (KMSN) Record (KMSN)
Temperature  
Mean Temperature 68 °F -  
Max Temperature 79 °F 80 °F 95 °F (1956)
Min Temperature 58 °F 55 °F 36 °F (1965)
Cooling Degree Days 3    
Growing Degree Days 18 (Base 50)    
Moisture  
Dew Point 56 °F    
Average Humidity 68    
Maximum Humidity 96    
Minimum Humidity 40    
Precipitation  
Precipitation 0.00 in - - ()
Sea Level Pressure  
Sea Level Pressure 29.96 in    
Wind  
Wind Speed 8 mph (NNW)    
Max Wind Speed 14 mph    
Max Gust Speed 20 mph    
Visibility 10 miles    
Events      
Averages and records for this station are not official NWS values.
T = Trace of Precipitation, MM = Missing Value Source: NWS Daily Summary

Daily Weather History Graph

Daily Weather History Graph

Search for Another Location

Airport or City:

Astronomy

Jun. 13, 2013 Rise Set
Actual Time 5:18 AM CDT 8:38 PM CDT
Civil Twilight 4:42 AM CDT 9:14 PM CDT
Nautical Twilight 3:56 AM CDT 10:00 PM CDT
Astronomical Twilight 2:59 AM CDT 10:57 PM CDT
Moon 10:00 AM CDT (6/13) 11:38 PM CDT (6/13)
Length of Visible Light 16h 31m
Length of Day
15h 20m
Waxing Crescent, 22% of the Moon is Illuminated
Jun 13
Waxing Crescent
Jun 16
First Quarter
Jun 23
Full
Jun 29
Last Quarter
Jul 8
New

Hourly Weather History & Observations

Time (CDT) Temp. Dew Point Humidity Pressure Visibility Wind Dir Wind Speed Gust Speed Precip Events Conditions
12:15 AM 62.6 °F 60.8 °F 94% 29.77 in 10.0 mi NNE 13.8 mph 19.6 mph N/A   Overcast
12:35 AM 61.7 °F 59.0 °F 91% 29.78 in 10.0 mi NNE 12.7 mph 18.4 mph N/A   Mostly Cloudy
12:55 AM 61.7 °F 58.1 °F 88% 29.79 in 10.0 mi North 9.2 mph - N/A   Mostly Cloudy
1:15 AM 61.7 °F 58.1 °F 88% 29.80 in 10.0 mi North 6.9 mph - N/A   Scattered Clouds
1:35 AM 61.7 °F 58.3 °F 89% 29.81 in 10.0 mi North 8.1 mph - N/A   Mostly Cloudy
1:55 AM 61.7 °F 57.7 °F 87% 29.81 in 10.0 mi North 4.6 mph - N/A   Mostly Cloudy
2:15 AM 61.7 °F 57.7 °F 87% 29.82 in 10.0 mi North 5.8 mph - N/A   Overcast
2:35 AM 61.7 °F 57.4 °F 86% 29.83 in 10.0 mi NNW 5.8 mph - N/A   Mostly Cloudy
2:55 AM 61.9 °F 57.2 °F 85% 29.84 in 10.0 mi NNW 6.9 mph - N/A   Mostly Cloudy
3:15 AM 61.7 °F 56.3 °F 82% 29.84 in 10.0 mi NW 4.6 mph - N/A   Overcast
3:35 AM 61.5 °F 55.8 °F 81% 29.85 in 10.0 mi NW 4.6 mph - N/A   Mostly Cloudy
3:55 AM 60.1 °F 57.2 °F 90% 29.86 in 10.0 mi NW 5.8 mph - N/A   Scattered Clouds
4:15 AM 59.9 °F 56.8 °F 90% 29.86 in 10.0 mi NW 4.6 mph - N/A   Clear
4:35 AM 58.5 °F 56.3 °F 93% 29.86 in 10.0 mi WNW 5.8 mph - N/A   Clear
4:55 AM 59.2 °F 56.7 °F 91% 29.87 in 10.0 mi WNW 4.6 mph - N/A   Clear
5:15 AM 58.5 °F 56.7 °F 94% 29.88 in 10.0 mi NW 5.8 mph - N/A   Clear
5:35 AM 58.1 °F 56.1 °F 93% 29.89 in 10.0 mi WNW 3.5 mph - N/A   Clear
5:55 AM 59.5 °F 56.8 °F 91% 29.90 in 10.0 mi WNW 4.6 mph - N/A   Clear
6:15 AM 60.8 °F 57.0 °F 87% 29.92 in 10.0 mi WNW 6.9 mph - N/A   Scattered Clouds
6:35 AM 61.9 °F 57.4 °F 85% 29.92 in 10.0 mi WNW 4.6 mph - N/A   Clear
6:55 AM 63.7 °F 57.7 °F 81% 29.92 in 10.0 mi NW 6.9 mph - N/A   Clear
7:15 AM 64.6 °F 58.5 °F 80% 29.93 in 10.0 mi NW 4.6 mph - N/A   Clear
7:35 AM 65.8 °F 58.3 °F 77% 29.94 in 10.0 mi NNW 6.9 mph - N/A   Clear
7:55 AM 67.1 °F 57.0 °F 70% 29.95 in 10.0 mi North 4.6 mph - N/A   Clear
8:15 AM 68.0 °F 55.6 °F 64% 29.95 in 10.0 mi NNE 8.1 mph - N/A   Clear
8:35 AM 68.7 °F 55.4 °F 62% 29.96 in 10.0 mi North 10.4 mph - N/A   Clear
9:15 AM 69.4 °F 56.3 °F 63% 29.97 in 10.0 mi NNE 8.1 mph - N/A   Scattered Clouds
9:35 AM 71.1 °F 56.5 °F 60% 29.98 in 10.0 mi North 6.9 mph - N/A   Scattered Clouds
9:55 AM 71.6 °F 56.1 °F 58% 29.98 in 10.0 mi North 8.1 mph - N/A   Mostly Cloudy
10:15 AM 72.0 °F 57.2 °F 60% 29.98 in 10.0 mi NNE 6.9 mph - N/A   Mostly Cloudy
10:35 AM 72.3 °F 57.4 °F 59% 29.98 in 10.0 mi NNW 6.9 mph - N/A   Scattered Clouds
10:55 AM 73.0 °F 58.3 °F 60% 29.99 in 10.0 mi North 10.4 mph - N/A   Clear
11:15 AM 73.4 °F 56.3 °F 55% 30.00 in 10.0 mi North 9.2 mph - N/A   Clear
11:35 AM 73.6 °F 56.5 °F 55% 30.00 in 10.0 mi North 6.9 mph - N/A   Clear
11:55 AM 74.3 °F 56.1 °F 53% 30.00 in 10.0 mi NNW 12.7 mph 16.1 mph N/A   Scattered Clouds
12:15 PM 74.5 °F 56.5 °F 53% 30.01 in 10.0 mi WNW 4.6 mph - N/A   Scattered Clouds
12:35 PM 75.4 °F 56.5 °F 52% 30.01 in 10.0 mi NW 5.8 mph - N/A   Mostly Cloudy
12:55 PM 75.9 °F 55.2 °F 49% 30.01 in 10.0 mi NW 10.4 mph 16.1 mph N/A   Scattered Clouds
1:15 PM 76.1 °F 55.0 °F 48% 30.01 in 10.0 mi NNW 11.5 mph 17.3 mph N/A   Scattered Clouds
1:35 PM 75.7 °F 54.3 °F 47% 30.01 in 10.0 mi NNW 12.7 mph 19.6 mph N/A   Scattered Clouds
1:55 PM 76.5 °F 54.3 °F 46% 30.01 in 10.0 mi NNW 10.4 mph - N/A   Scattered Clouds
2:15 PM 76.6 °F 54.1 °F 46% 30.01 in 10.0 mi North 10.4 mph 16.1 mph N/A   Scattered Clouds
2:35 PM 77.9 °F 55.2 °F 45% 30.01 in 10.0 mi NNW 11.5 mph - N/A   Scattered Clouds
2:55 PM 76.1 °F 51.6 °F 42% 30.01 in 10.0 mi North 11.5 mph 18.4 mph N/A   Scattered Clouds
3:15 PM 78.6 °F 52.3 °F 40% 30.01 in 10.0 mi North 12.7 mph 19.6 mph N/A   Scattered Clouds
3:35 PM 77.9 °F 53.8 °F 43% 30.01 in 10.0 mi NNW 8.1 mph - N/A   Clear
3:55 PM 78.8 °F 53.2 °F 41% 30.01 in 10.0 mi NW 11.5 mph 18.4 mph N/A   Scattered Clouds
4:15 PM 77.4 °F 52.5 °F 42% 30.01 in 10.0 mi NNE 12.7 mph 18.4 mph N/A   Mostly Cloudy
4:35 PM 75.9 °F 54.7 °F 48% 30.01 in 10.0 mi North 8.1 mph - N/A   Mostly Cloudy
4:55 PM 76.1 °F 53.2 °F 45% 30.01 in 10.0 mi North 10.4 mph - N/A   Mostly Cloudy
5:15 PM 77.9 °F 52.7 °F 41% 30.00 in 10.0 mi North 9.2 mph - N/A   Scattered Clouds
5:35 PM 77.5 °F 52.7 °F 42% 30.01 in 10.0 mi North 10.4 mph - N/A   Scattered Clouds
5:55 PM 77.4 °F 51.6 °F 41% 30.01 in 10.0 mi North 8.1 mph - N/A   Scattered Clouds
6:15 PM 76.5 °F 52.2 °F 43% 30.01 in 10.0 mi North 9.2 mph - N/A   Scattered Clouds
6:35 PM 76.5 °F 52.5 °F 43% 30.02 in 10.0 mi NNE 11.5 mph - N/A   Scattered Clouds
6:55 PM 75.4 °F 51.6 °F 43% 30.02 in 10.0 mi North 10.4 mph - N/A   Clear
7:15 PM 74.7 °F 52.0 °F 45% 30.03 in 10.0 mi North 6.9 mph - N/A   Clear
7:35 PM 72.9 °F 52.7 °F 49% 30.04 in 10.0 mi North 5.8 mph - N/A   Mostly Cloudy
7:55 PM 72.5 °F 53.8 °F 52% 30.04 in 10.0 mi North 4.6 mph - N/A   Overcast
8:15 PM 70.9 °F 54.5 °F 56% 30.05 in 10.0 mi North 4.6 mph - N/A   Overcast
8:35 PM 69.4 °F 56.7 °F 64% 30.05 in 10.0 mi Calm Calm - N/A   Scattered Clouds
8:55 PM 66.7 °F 58.8 °F 76% 30.05 in 10.0 mi Calm Calm - N/A   Mostly Cloudy
9:15 PM 66.4 °F 56.8 °F 71% 30.05 in 10.0 mi Calm Calm - N/A   Mostly Cloudy
9:35 PM 64.6 °F 59.7 °F 84% 30.06 in 10.0 mi Calm Calm - N/A   Clear
9:55 PM 61.9 °F 57.9 °F 87% 30.06 in 10.0 mi WNW 3.5 mph - N/A   Scattered Clouds
10:15 PM 61.9 °F 59.4 °F 91% 30.06 in 10.0 mi Calm Calm - N/A   Mostly Cloudy
10:35 PM 61.3 °F 59.5 °F 94% 30.06 in 10.0 mi Calm Calm - N/A   Scattered Clouds
10:55 PM 59.7 °F 57.4 °F 92% 30.06 in 10.0 mi Calm Calm - N/A   Clear
11:15 PM 58.3 °F 56.5 °F 94% 30.07 in 10.0 mi Calm Calm - N/A   Clear
11:35 PM 60.1 °F 58.8 °F 96% 30.06 in 10.0 mi Calm Calm - N/A   Clear
11:55 PM 58.6 °F 57.4 °F 96% 30.07 in 10.0 mi Calm Calm - N/A   Clear